Read MPEC 2002-P50
Read MPEC 2002-P52
M.P.E.C. 2002-P51 Issued 2002 Aug. 12, 14:32 UT
The Minor Planet Electronic Circulars contain information on unusual
minor planets and routine data on comets. They are published
on behalf of Commission 20 of the International Astronomical Union by the
Minor Planet Center, Smithsonian Astrophysical Observatory,
Cambridge, MA 02138, U.S.A.
Prepared using the Tamkin Foundation Computer Network
MPC@CFA.HARVARD.EDU
URL http://cfa-www.harvard.edu/iau/mpc.html ISSN 1523-6714
2002 PD43
Observations:
K02P43D C2002 08 07.33546 21 43 13.61 -10 05 41.2 16.6 V G78
K02P43D C2002 08 07.39712 21 42 39.07 -10 07 17.7 16.4 V G78
K02P43D* C2002 08 07.45192 21 42 08.47 -10 08 41.1 17.6 644
K02P43D C2002 08 07.46234 21 42 02.65 -10 08 57.3 17.7 644
K02P43D C2002 08 07.47393 21 41 56.23 -10 09 15.1 17.7 644
K02P43D C2002 08 08.18265 21 35 40.05 -10 26 53.0 17.5 R 649
K02P43D C2002 08 08.18422 21 35 39.22 -10 26 55.2 17.3 R 649
K02P43D C2002 08 08.18661 21 35 37.97 -10 26 58.6 17.4 R 649
K02P43D C2002 08 08.29178 21 34 42.97 -10 29 28.7 17.2 R 734
K02P43D C2002 08 08.29578 21 34 40.89 -10 29 34.0 17.0 R 734
K02P43D C2002 08 08.34594 21 34 15.24 -10 30 43.2 18.0 644
K02P43D C2002 08 08.35636 21 34 09.83 -10 30 57.8 17.6 644
K02P43D C2002 08 08.36808 21 34 03.73 -10 31 14.2 17.6 644
K02P43D C2002 08 09.18782 21 27 20.40 -10 49 29.4 17.5 R 649
K02P43D C2002 08 09.18940 21 27 19.64 -10 49 31.4 17.8 R 649
K02P43D C2002 08 09.19137 21 27 18.70 -10 49 34.0 17.8 R 649
K02P43D C2002 08 09.19851 21 27 15.14 -10 49 43.6 16.8 R 734
K02P43D C2002 08 09.20409 21 27 12.53 -10 49 49.7 17.2 R 734
K02P43D C2002 08 09.49120 21 24 57.28 -10 55 19.0 17.8 R 474
K02P43D C2002 08 09.49189 21 24 56.93 -10 55 19.9 17.9 R 474
K02P43D C2002 08 09.49490 21 24 55.51 -10 55 23.5 17.5 R 474
K02P43D C2002 08 09.92979 21 21 37.05 -11 04 38.1 046
K02P43D C2002 08 09.93156 21 21 36.28 -11 04 37.6 046
K02P43D C2002 08 09.93216 21 21 35.89 -11 04 39.7 046
K02P43D C2002 08 09.93287 21 21 35.71 -11 04 40.9 046
K02P43D C2002 08 09.93350 21 21 35.39 -11 04 40.9 046
K02P43D C2002 08 09.93756 21 21 33.51 -11 04 46.3 046
K02P43D C2002 08 09.93855 21 21 33.19 -11 04 46.7 046
K02P43D C2002 08 09.94152 21 21 31.82 -11 04 52.3 046
K02P43D C2002 08 09.94303 21 21 31.06 -11 04 52.6 046
K02P43D C2002 08 09.94388 21 21 30.73 -11 04 51.8 046
K02P43D C2002 08 09.94935 21 21 28.20 -11 05 00.6 046
K02P43D C2002 08 09.95035 21 21 27.74 -11 05 00.0 046
K02P43D C2002 08 09.95098 21 21 27.47 -11 05 01.8 046
K02P43D C2002 08 10.07851 21 20 31.03 -11 07 07.3 18.8 R 859
K02P43D C2002 08 10.07946 21 20 30.61 -11 07 07.7 18.9 R 859
K02P43D C2002 08 10.08084 21 20 29.90 -11 07 10.0 19.2 R 859
K02P43D C2002 08 10.37416 21 18 21.11 -11 13 03.4 18.9 R 848
K02P43D C2002 08 10.37528 21 18 20.71 -11 13 04.8 18.4 R 848
K02P43D C2002 08 10.37642 21 18 20.11 -11 13 06.6 18.1 R 848
K02P43D C2002 08 10.37755 21 18 19.60 -11 13 06.3 18.4 R 848
K02P43D C2002 08 10.88493 21 14 45.63 -11 22 15.3 118
K02P43D C2002 08 10.88691 21 14 44.92 -11 22 17.4 17.8 R 118
K02P43D C2002 08 10.89243 21 14 42.71 -11 22 23.6 118
K02P43D C2002 08 10.90005 21 14 39.53 -11 22 31.1 118
K02P43D C2002 08 10.92091 21 14 31.07 -11 22 50.5 17.8 R 946
K02P43D C2002 08 10.92608 21 14 28.81 -11 22 57.0 17.6 R 946
K02P43D C2002 08 10.93047 21 14 26.86 -11 23 02.4 17.9 R 946
K02P43D C2002 08 11.19119 21 12 40.70 -11 27 29.0 17.5 R 734
K02P43D C2002 08 11.19362 21 12 39.94 -11 27 30.0 17.7 R 858
K02P43D C2002 08 11.19685 21 12 38.64 -11 27 33.3 18.1 R 858
K02P43D C2002 08 11.19965 21 12 37.31 -11 27 37.8 17.1 R 734
K02P43D C2002 08 11.20007 21 12 37.31 -11 27 36.5 17.9 R 858
K02P43D C2002 08 11.30622 21 11 54.17 -11 29 24.1 671
K02P43D C2002 08 11.30747 21 11 53.67 -11 29 25.3 18.2 R 671
K02P43D C2002 08 11.30871 21 11 53.15 -11 29 26.6 671
K02P43D C2002 08 11.42552 21 11 05.80 -11 31 21.6 18.1 644
K02P43D C2002 08 11.43623 21 11 01.54 -11 31 31.8 18.3 644
K02P43D C2002 08 11.44696 21 10 57.22 -11 31 42.3 18.2 644
K02P43D C2002 08 11.93813 21 07 48.26 -11 39 36.4 18.0 R 946
K02P43D C2002 08 11.94211 21 07 46.77 -11 39 40.6 17.8 R 946
K02P43D C2002 08 11.94478 21 07 45.75 -11 39 43.6 18.0 R 946
K02P43D C2002 08 11.94880 21 07 44.23 -11 39 47.7 17.9 R 946
K02P43D C2002 08 12.24625 21 05 52.91 -11 44 16.5 18.4 R 448
K02P43D C2002 08 12.25023 21 05 51.38 -11 44 20.0 18.5 R 448
K02P43D C2002 08 12.25417 21 05 49.90 -11 44 23.5 18.5 R 448
K02P43D C2002 08 12.35444 21 05 12.68 -11 45 55.7 18.6 R 848
K02P43D C2002 08 12.35554 21 05 12.29 -11 45 56.2 18.9 R 848
K02P43D C2002 08 12.35666 21 05 11.88 -11 45 57.9 17.9 R 848
K02P43D C2002 08 12.35778 21 05 11.35 -11 45 59.3 18.5 R 848
Observer details:
046 Klet. Observers J. Ticha, M. Tichy, M. Kocer. 0.57-m f/5.2
reflector + CCD.
118 Modra. Observers S. Gajdos, J. Toth. 0.6-m f/5.5 reflector + CCD.
448 Desert Moon Observatory. Observer B. Stevens. 0.30-m f/6.3
Schmidt-Cassegrain + CCD.
474 Mount John Observatory, Lake Tekapo. Observer A. C. Gilmore. Measurer
P. M. Kilmartin. 1.0-m f/7.7 reflector + CCD.
644 Palomar Mountain/NEAT. Observers E. F. Helin, S. Pravdo, K. Lawrence,
K. Kuluhiwa, M. Hicks, R. Thicksten. 1.2-m Schmidt + CCD.
649 Powell Observatory, Louisburg. Observers K. Smalley, R. Fredrick,
R. Trentman, M. Glaze. 0.75-m Newtonian + CCD.
671 Stony Ridge. Observers S. C. Brewster, J. E. Rogers. 0.76-m f/6
reflector + CCD.
734 Farpoint Observatory. Observer G. Hug. 0.30-m Schmidt-Cassegrain + CCD.
848 Tenagra Observatory, Cottage Grove. Observers M. Schwartz,
P. R. Holvorcem. 0.36-m f/11 Schmidt-Cassegrain + CCD.
858 Tebbutt Observatory, Edgewood. Observer F. B. Zoltowski. 0.3-m f/3.3
Schmidt-Cassegrain + CCD.
859 Wykrota Observatory-CEAMIG. Observer C. Jacques. 0.3-m f/3.3
Schmidt-Cassegrain + CCD.
946 Ametlla de Mar. Observer J. Nomen. 0.40-m f/2.0 Schmidt + CCD.
G78 Desert Wanderer Observatory. Observer W. K. Y. Yeung. 0.45-m reflector
+ CCD.
Orbital elements:
2002 PD43 PHA 0.035
Epoch 2002 May 6.0 TT = JDT 2452400.5 MPC
M 350.45129 (2000.0) P Q
n 0.23634563 Peri. 210.34367 -0.93149568 -0.18069624
a 2.5908225 Node 315.44732 +0.35096121 -0.67458346
e 0.9579852 Incl. 26.74304 -0.09561391 -0.71574159
P 4.17 H 19.0 G 0.15 U 9
Residuals in seconds of arc
020807 G78 (2.9- 2.0-) 020809 046 0.8+ 0.3+ 020811 734 0.5- 0.0
020807 G78 (0.3- 1.7-) 020809 046 0.3+ 1.0+ 020811 858 0.1- 0.2+
020807 644 0.0 0.0 020809 046 0.3- 0.4+ 020811 858 0.2+ 0.2+
020807 644 0.2- 0.1- 020809 046 (1.7+ 1.1+) 020811 734 0.6+ 0.2-
020807 644 0.1+ 0.1- 020809 046 (1.3+ 1.0-) 020811 858 0.0 0.3+
020808 649 0.1+ 0.2- 020809 046 0.2+ 0.5+ 020811 671 0.0 0.1-
020808 649 0.0 0.1- 020809 046 (1.1+ 2.3+) 020811 671 0.1+ 0.1-
020808 649 0.1+ 0.1- 020809 046 0.4+ 0.1- 020811 671 0.1- 0.1-
020808 734 0.2+ 0.2- 020809 046 (0.3+ 1.6+) 020811 644 0.5- 0.0
020808 734 0.3+ 0.2+ 020809 046 0.5+ 0.6+ 020811 644 0.0 0.2+
020808 644 0.1- 0.1- 020810 859 0.1+ 0.5- 020811 644 0.3- 0.1+
020808 644 0.0 0.1- 020810 859 0.2+ 0.2+ 020811 946 1.0- 0.4-
020808 644 0.3- 0.1- 020810 859 1.1- 0.5- 020811 946 0.4- 0.9-
020809 649 0.1+ 0.1+ 020810 848 0.4- 0.4- 020811 946 (0.2- 1.4-)
020809 649 0.1+ 0.1+ 020810 848 1.0+ 0.5- 020811 946 (0.2+ 1.7-)
020809 649 0.3+ 0.0 020810 848 0.5- 1.1- 020812 448 0.2+ 0.0
020809 734 (1.7- 0.4-) 020810 848 0.7- 0.5+ 020812 448 0.3- 0.1+
020809 734 0.4- 0.7+ 020810 118 (2.4- 0.0 ) 020812 448 0.2- 0.1+
020809 474 0.1- 0.0 020810 118 0.6- 0.0 020812 848 0.7+ 0.4+
020809 474 0.5- 0.0 020810 118 1.0+ 0.3- 020812 848 (1.0+ 0.9+)
020809 474 0.5- 0.1+ 020810 118 1.2+ 0.2+ 020812 848 1.1+ 0.2+
020809 046 0.1- 0.5- 020810 946 0.5+ 0.8+ 020812 848 0.5- 0.2-
020809 046 (0.4+ 2.0+) 020810 946 0.9- 0.2-
020809 046 (1.3- 0.7+) 020810 946 (2.5- 1.0-)
Ephemeris:
2002 PD43 a,e,i = 2.59, 0.96, 27 q = 0.1089
Date TT R. A. (2000) Decl. Delta r Elong. Phase V
2002 08 04 22 18.62 -08 18.5 0.298 1.296 157.9 17.2 17.8
2002 08 14 20 55.82 -12 08.0 0.455 1.463 170.5 6.6 18.6
2002 08 24 20 19.19 -13 26.9 0.653 1.619 152.7 16.7 20.0
2002 09 03 20 02.75 -13 59.7 0.874 1.765 139.2 21.9 21.0
2002 09 13 19 56.33 -14 13.7 1.110 1.903 128.0 24.6 21.8
2002 09 23 19 55.59 -14 17.2 1.358 2.034 118.2 25.8 22.4
2002 10 03 19 58.37 -14 13.0 1.612 2.158 109.1 26.0 22.9
Timothy B. Spahr (C) Copyright 2002 MPC M.P.E.C. 2002-P51
Read MPEC 2002-P50
Read MPEC 2002-P52
Our Web policy. Index to the CBAT/MPC/ICQ pages.